EHI
1 0 1 2 5 7 7 6 7 9 10 9 8 6 2 0 0 0 0 1 1 0 0 0 0 0 0 0 0 0 0 0 0 0 0 0 0 0 0 0 0 0 0
2 1 3 6 9 9 8 7 8 9 10 9 9 6 3 1 0 0 0 1 1 1 1 1 1 1 0 0 0 0 0 0 0 0 0 0 0 0 0 0 0 0 0
2 3 6 10 12 12 10 9 9 9 10 10 9 6 3 1 1 0 0 1 1 2 2 2 2 1 1 1 1 0 1 1 0 0 0 0 0 0 0 0 0 0 0
1 3 7 11 14 14 12 11 11 11 10 10 9 6 4 3 2 1 0 0 0 1 2 1 1 1 2 2 2 2 2 2 1 1 0 0 0 0 0 0 0 0 0
1 2 7 13 16 15 13 13 13 11 9 9 8 6 4 3 3 2 1 1 0 0 0 1 1 1 2 3 3 3 3 3 3 2 1 1 0 0 0 0 0 0 0
1 3 8 14 16 16 15 15 13 10 8 7 7 6 5 4 3 3 3 2 1 0 0 1 2 2 3 3 3 3 3 3 3 3 3 2 1 0 0 0 0 0 0
3 5 9 12 14 14 16 16 14 12 9 8 7 7 7 6 4 3 3 3 1 0 0 1 1 2 2 3 3 3 3 3 3 3 3 3 2 1 0 0 0 0 0
4 6 9 10 10 11 14 16 16 14 11 9 8 8 8 7 5 3 3 3 2 1 0 1 1 1 1 2 3 3 3 3 3 3 3 3 3 2 1 0 0 0 0
5 6 8 9 9 11 13 16 15 13 11 10 9 9 9 8 6 4 4 5 4 1 0 0 0 0 1 2 2 3 3 3 3 3 3 3 3 3 2 1 0 0 0
6 6 7 8 9 10 12 14 14 12 11 10 10 9 9 7 6 4 4 5 5 3 1 1 0 0 1 1 1 2 3 3 3 3 3 3 3 3 3 1 0 0 0
5 6 7 7 8 9 11 13 13 13 12 10 10 9 8 7 6 5 4 4 5 4 3 2 1 0 0 0 1 2 3 3 3 3 3 3 3 3 3 2 1 0 0
3 6 7 7 8 8 10 10 11 12 12 11 9 8 8 8 8 8 6 5 4 3 3 3 2 1 0 0 1 2 3 3 3 3 3 3 3 3 3 3 2 1 0
5 7 8 8 8 10 10 9 8 10 11 12 10 9 9 10 10 10 8 6 4 3 3 3 2 1 0 0 0 1 2 2 3 3 3 3 3 3 3 3 3 2 1
7 8 9 9 10 11 10 8 7 9 11 13 12 12 12 12 12 12 10 7 5 4 3 3 3 1 0 0 0 0 1 1 1 2 3 3 3 3 3 3 3 2 1
7 7 8 10 13 13 11 10 9 10 12 13 14 14 13 13 13 13 11 9 7 6 5 4 4 3 2 1 0 0 1 0 0 1 2 2 2 2 2 2 2 1 0
6 6 8 11 14 15 13 12 11 11 11 13 13 14 13 13 13 13 12 11 9 9 8 7 6 5 3 1 0 0 1 0 0 0 1 1 1 1 1 0 0 0 0
6 6 7 10 13 14 13 12 11 10 10 11 12 13 13 13 13 13 13 12 11 11 10 9 8 6 3 1 0 0 1 0 0 0 0 0 0 0 0 0 0 0 0
7 7 7 8 9 10 11 11 10 9 9 10 11 12 12 12 12 12 13 13 12 11 10 9 8 5 2 0 0 0 0 0 0 0 0 0 0 0 0 0 1 0 0
11 9 7 7 6 7 9 10 9 8 8 9 9 10 10 11 11 12 11 11 10 9 7 7 6 5 3 1 0 0 0 0 0 0 0 0 0 0 0 0 0 0 0
13 10 9 7 6 6 8 9 8 7 7 7 6 7 8 10 11 11 9 7 7 5 4 4 4 4 3 1 0 0 0 0 0 0 0 0 0 0 0 0 0 0 0
11 10 10 9 8 8 9 9 7 6 5 4 3 3 5 8 9 8 6 4 4 3 3 3 3 3 2 1 0 0 0 0 0 0 0 0 0 0 0 0 0 0 0
10 10 10 9 9 11 11 9 7 5 4 3 2 2 3 5 7 6 4 2 2 2 3 3 3 2 1 0 0 0 0 0 0 0 0 0 0 0 0 0 0 0 0
9 9 8 7 7 9 9 7 6 4 3 3 2 2 4 5 6 5 2 1 0 1 1 2 2 1 0 0 0 0 0 0 0 0 0 0 0 0 0 0 0 0 0
7 7 5 4 5 6 6 6 5 4 3 3 3 3 4 6 6 4 1 0 0 0 0 1 1 1 0 0 0 0 0 0 0 0 0 0 0 0 0 0 0 0 0
6 5 4 4 4 5 5 5 4 4 4 4 4 3 4 4 4 2 1 0 0 0 0 0 0 0 0 0 0 0 0 0 0 0 0 0 0 0 0 0 0 0 0
6 5 4 4 4 5 5 5 4 4 5 4 4 3 3 2 1 1 0 0 0 0 0 0 0 0 0 0 0 0 0 0 0 0 0 0 0 0 0 0 0 0 0
Wind_Speed
4 3 3 4 4 3 3 3 3 2 2 2 2 2 1 1 2 2 3 3 2 2 3 2 2 2 2 2 2 2 3 3 2 3 2 3 3 3 2 2 2 2 1
3 3 4 4 4 4 4 3 3 3 3 2 2 2 2 2 2 2 3 3 3 2 2 2 2 2 2 3 3 2 2 2 3 2 2 2 2 2 2 2 1 1 1
6 5 5 5 4 4 5 4 3 3 3 3 3 3 3 2 2 3 2 3 3 3 2 2 2 2 2 1 2 2 2 2 2 2 2 2 0 1 1 2 1 1 1
5 5 6 5 5 5 4 4 4 3 3 3 4 4 3 2 1 0 1 2 2 2 2 2 2 2 2 2 1 2 1 2 1 1 2 1 1 1 1 2 2 2 2
6 6 6 6 5 5 4 4 4 3 2 3 4 4 3 2 1 1 2 2 2 2 2 2 2 2 1 1 2 2 1 1 1 1 1 1 2 1 1 1 1 2 2
5 5 4 4 4 4 4 4 4 3 3 3 3 4 4 3 3 2 1 1 1 2 2 2 2 1 1 1 1 1 1 1 1 1 1 1 1 1 1 1 1 1 1
5 6 6 6 6 6 5 4 4 3 3 3 3 3 3 3 3 2 1 1 1 1 1 1 1 1 1 1 1 1 1 0 1 1 0 0 1 1 2 2 1 0 1
4 5 6 6 6 7 6 6 5 4 3 3 3 3 3 2 2 2 1 1 1 1 1 1 1 1 1 1 1 1 1 1 0 0 1 0 0 1 1 2 2 1 1
3 4 5 6 6 6 6 6 6 4 3 3 3 2 2 2 2 2 1 1 1 1 0 0 1 1 1 1 1 1 1 1 1 1 0 0 0 1 1 1 2 2 1
3 3 4 5 5 5 5 5 5 5 4 3 3 2 2 2 2 2 1 1 0 0 1 1 1 1 1 1 1 1 1 1 1 1 1 1 0 0 1 1 1 2 2
4 4 3 4 4 4 5 4 4 4 3 3 2 2 2 2 2 1 1 1 0 1 1 1 0 0 1 1 1 1 1 1 1 1 1 1 1 1 0 1 1 1 2
3 4 4 4 4 4 4 4 3 3 3 3 3 2 2 2 2 1 0 0 0 0 1 1 1 0 1 1 1 1 1 1 0 1 1 1 1 1 0 1 1 1 1
3 4 4 4 4 4 4 4 3 3 3 3 3 2 2 2 2 2 1 0 0 0 0 0 0 0 0 0 0 0 0 0 0 0 0 0 1 0 1 1 1 1 1
4 4 4 3 3 3 4 4 3 3 4 4 3 3 2 2 1 1 1 1 0 0 0 0 0 1 1 0 0 0 0 0 1 1 1 1 1 2 1 1 1 2 2
3 4 4 3 3 3 3 3 3 3 4 4 3 2 2 1 1 1 1 0 0 0 0 0 1 1 0 1 1 1 0 1 1 1 1 1 1 2 2 2 2 3 2
3 3 3 4 3 3 3 3 3 3 3 4 3 2 2 2 1 1 1 1 1 1 1 1 1 1 1 2 1 0 0 1 1 1 1 1 1 0 1 2 3 4 3
3 4 3 4 4 4 4 4 3 3 3 3 2 1 2 2 1 1 1 1 0 1 1 1 1 1 2 2 2 2 1 1 1 1 1 1 0 1 1 1 1 1 2
3 3 3 3 3 3 3 4 4 3 3 2 2 1 2 2 2 1 1 1 1 1 0 1 1 1 2 3 3 2 1 0 0 1 0 1 1 0 1 1 1 0 1
2 3 3 3 4 4 4 5 4 3 2 1 1 1 2 2 2 2 2 1 1 0 0 0 0 1 2 2 2 2 1 1 1 1 1 0 1 1 2 2 1 0 1
3 3 3 4 4 3 4 5 4 3 1 1 1 1 1 2 2 2 2 1 1 0 0 1 1 1 2 2 2 2 1 0 1 1 2 2 1 0 1 1 1 1 2
5 5 5 5 3 3 5 5 3 1 1 1 2 2 1 1 2 1 1 1 1 1 1 2 2 2 2 2 2 2 1 1 0 1 1 1 2 1 1 1 2 3 2
5 5 5 4 3 4 5 5 2 1 1 2 2 2 1 1 2 2 1 1 2 1 1 2 2 3 2 2 2 2 1 1 1 1 1 1 2 2 1 1 1 1 0
4 4 5 4 3 3 3 4 2 1 2 3 2 2 2 2 2 2 2 1 1 1 1 1 1 2 2 3 3 2 1 1 1 1 1 2 2 1 1 1 1 1 1
3 3 5 4 2 1 1 2 1 2 3 3 2 2 2 2 2 1 1 1 1 1 1 1 1 1 2 2 2 1 1 1 1 1 2 2 3 3 2 2 2 1 1
2 3 4 3 2 1 1 1 1 2 3 3 2 1 1 2 1 1 0 1 1 2 2 1 1 1 2 3 2 0 0 1 0 0 1 1 2 2 2 2 1 1 1
3 3 3 3 2 2 1 1 1 2 3 3 2 1 1 1 1 1 1 2 1 1 0 1 2 1 2 2 1 1 1 1 0 1 0 1 1 1 1 2 2 1 1
Wind_Direction
201 171 165 154 136 128 129 135 130 121 111 99 95 84 65 49 45 46 45 47 51 63 73 61 50 53 58 52 50 61 56 46 49 69 53 45 59 67 68 74 85 86 93
175 171 168 159 158 155 152 146 144 138 133 127 123 116 108 86 68 40 42 43 48 54 80 75 67 61 62 50 48 61 65 52 40 65 80 43 30 35 48 67 90 75 69
195 186 181 172 161 163 165 159 154 144 136 124 105 92 72 55 48 39 26 23 41 54 62 62 69 63 71 64 49 65 82 79 41 47 90 104 109 358 20 48 55 55 68
196 182 176 173 171 168 159 147 147 142 136 129 124 127 122 115 112 85 44 26 40 50 52 56 61 61 63 67 53 64 76 94 76 34 49 89 130 117 42 31 43 47 51
190 183 181 174 163 152 151 144 138 131 124 128 136 126 115 117 99 75 58 35 28 40 47 54 55 55 52 54 53 57 75 91 102 79 68 72 62 80 116 75 25 32 26
182 173 163 146 144 138 133 134 133 130 128 128 130 136 139 135 118 98 75 32 18 22 31 57 56 55 51 43 44 56 69 85 101 91 90 125 131 134 131 135 83 13 349
175 169 164 161 157 148 146 145 143 142 141 135 135 145 152 151 151 150 139 116 31 0 350 47 59 48 32 38 45 63 46 65 135 154 158 146 153 145 141 130 130 97 353
170 175 174 168 164 159 157 154 159 161 164 156 156 152 156 157 156 159 152 161 196 248 326 43 78 63 55 50 48 49 16 34 73 120 137 128 183 138 137 142 141 121 39
171 169 161 162 163 166 167 166 164 164 167 163 153 150 155 152 152 154 147 163 224 197 105 83 59 48 53 58 73 49 16 30 16 4 76 139 245 152 154 150 160 155 166
147 148 156 160 164 169 164 159 161 164 158 156 166 166 165 152 145 144 150 170 202 109 115 90 58 36 33 46 63 43 12 44 13 7 31 11 343 124 167 169 166 162 169
159 151 151 152 146 142 144 151 158 151 154 161 157 145 151 144 134 145 163 180 190 164 143 150 119 49 16 41 70 51 46 57 14 354 25 350 17 87 102 147 148 150 160
148 138 131 129 130 132 136 146 156 160 164 150 139 141 135 132 138 154 174 154 191 201 176 154 146 155 27 31 77 52 48 87 348 326 357 345 68 82 96 128 142 150 167
120 121 124 134 141 141 140 137 155 166 148 137 135 134 140 150 166 174 176 156 136 359 351 120 154 226 235 71 102 115 28 359 316 317 213 261 119 110 119 139 140 145 134
124 124 128 136 138 141 147 147 150 146 141 140 144 157 170 179 181 166 173 196 185 152 345 323 227 225 212 187 181 133 63 326 331 326 268 225 179 195 179 164 160 145 129
134 138 139 138 136 134 135 143 144 140 140 136 148 173 165 149 131 131 154 141 120 216 75 39 358 334 266 216 188 187 199 268 302 323 314 271 173 171 168 166 170 158 152
159 149 139 137 144 149 148 144 148 144 136 139 156 153 134 137 139 144 112 80 50 39 55 32 6 347 325 345 330 248 197 251 267 292 309 322 327 61 125 145 156 161 169
166 162 160 156 157 161 153 150 154 136 127 131 140 156 153 154 167 162 127 126 92 54 42 11 12 343 326 353 1 18 54 255 250 262 293 318 21 73 100 111 125 157 177
163 167 163 159 159 146 135 129 116 111 118 129 144 158 156 156 148 133 133 142 144 140 312 342 337 343 337 6 20 31 51 51 294 260 244 238 284 240 134 122 89 64 256
152 160 156 148 137 132 126 115 108 104 107 137 154 165 167 163 151 153 176 175 158 176 266 292 304 303 305 344 21 58 85 46 358 357 13 231 254 260 123 120 120 1 321
88 104 104 101 104 104 110 111 113 115 136 163 155 133 149 153 163 174 168 147 141 205 355 334 321 317 321 349 34 72 110 62 337 345 353 349 335 338 109 142 165 235 287
85 93 95 94 100 110 113 109 102 113 187 138 115 115 137 142 133 116 104 110 98 75 34 4 348 342 341 1 29 60 118 166 251 313 326 330 338 328 289 219 213 233 253
82 91 92 85 85 101 109 105 110 202 119 101 105 110 115 117 101 102 86 88 92 77 39 22 2 358 353 3 360 14 42 86 125 284 298 311 329 326 304 258 231 227 231
98 97 100 91 74 87 117 129 175 145 115 105 110 113 95 74 86 110 108 88 81 78 37 17 350 342 350 354 356 353 0 61 72 325 331 346 359 1 6 51 84 99 113
106 106 104 97 81 71 101 127 129 118 119 116 116 119 105 81 66 73 94 111 119 94 44 337 312 317 328 331 339 354 6 17 23 1 2 27 38 34 29 38 49 66 105
112 118 124 126 132 107 95 98 112 116 121 115 106 108 117 125 94 60 75 150 199 180 180 221 234 244 287 292 288 290 322 289 302 31 35 32 27 21 13 9 11 13 15
133 129 134 136 145 132 110 91 108 124 124 121 121 128 137 132 126 97 25 23 30 33 160 180 187 228 252 275 299 294 274 317 75 105 84 328 338 323 317 321 327 333 328